AFL041 ULLI-UUEE

Flight info

Callsign AFL041
Flight time 1h 2m
Altitude 41000
Route SUGIN1B SUGIN T873 NIRGI T73 NAMIN NAMIN3F
Aircraft A359/H-SDE2E3GHIJ3J4J5LM1ORWXY/LB1D1

Departure

Time 2026-05-01 11:04
Airport Pulkovo Airport (ULLI)

Arrival

Time 2026-05-01 12:06
Airport Sheremetyevo International Airport (UUEE)
Time Latitude Longitude Altitude Speed Heading
2026-05-01 10:36 59.79874 30.26689 93 ft 0 kts 106°
2026-05-01 10:51 59.79875 30.26684 93 ft 2 kts 106°
2026-05-01 10:52 59.79880 30.26655 93 ft 2 kts 106°
2026-05-01 10:52 59.79884 30.26627 93 ft 2 kts 106°
2026-05-01 10:52 59.79888 30.26598 93 ft 1 kts 106°
2026-05-01 10:52 59.79890 30.26581 93 ft 2 kts 102°
2026-05-01 10:53 59.79891 30.26550 93 ft 2 kts 71°
2026-05-01 10:53 59.79884 30.26524 93 ft 2 kts 49°
2026-05-01 10:53 59.79879 30.26514 93 ft 2 kts 38°
2026-05-01 10:53 59.79869 30.26501 93 ft 1 kts 19°
2026-05-01 10:54 59.79864 30.26498 93 ft 0 kts 17°
2026-05-01 10:55 59.79867 30.26500 93 ft 1 kts 17°
2026-05-01 10:56 59.79883 30.26510 93 ft 4 kts 17°
2026-05-01 10:56 59.79890 30.26514 93 ft 2 kts 17°
2026-05-01 10:56 59.79903 30.26522 93 ft 3 kts 17°
2026-05-01 10:56 59.79946 30.26548 93 ft 8 kts 17°
2026-05-01 10:57 59.80005 30.26584 92 ft 9 kts 16°
2026-05-01 10:57 59.80085 30.26631 91 ft 13 kts 16°
2026-05-01 10:57 59.80180 30.26686 89 ft 14 kts 16°
2026-05-01 10:57 59.80196 30.26696 89 ft 14 kts 16°
2026-05-01 10:58 59.80267 30.26737 87 ft 16 kts 16°
2026-05-01 10:58 59.80356 30.26790 85 ft 5 kts 16°
2026-05-01 10:58 59.80389 30.26814 85 ft 2 kts 36°
2026-05-01 10:58 59.80394 30.26878 85 ft 6 kts 99°
2026-05-01 10:59 59.80380 30.26976 85 ft 9 kts 106°
2026-05-01 10:59 59.80356 30.27134 83 ft 14 kts 106°
2026-05-01 10:59 59.80325 30.27345 83 ft 16 kts 106°
2026-05-01 10:59 59.80289 30.27586 84 ft 18 kts 106°
2026-05-01 11:00 59.80253 30.27823 81 ft 18 kts 107°
2026-05-01 11:00 59.80214 30.28084 80 ft 21 kts 106°
2026-05-01 11:00 59.80168 30.28391 79 ft 24 kts 106°
2026-05-01 11:00 59.80121 30.28717 79 ft 25 kts 106°
2026-05-01 11:01 59.80069 30.29063 78 ft 26 kts 105°
2026-05-01 11:01 59.80015 30.29425 79 ft 28 kts 106°
2026-05-01 11:01 59.79966 30.29756 79 ft 20 kts 106°
2026-05-01 11:01 59.79936 30.29977 81 ft 13 kts 92°
2026-05-01 11:02 59.79972 30.30103 80 ft 9 kts 44°
2026-05-01 11:02 59.80021 30.30201 79 ft 11 kts 45°
2026-05-01 11:02 59.80082 30.30299 79 ft 9 kts 10°
2026-05-01 11:02 59.80125 30.30240 79 ft 7 kts 288°
2026-05-01 11:03 59.80133 30.30182 79 ft 0 kts 284°
2026-05-01 11:03 59.80133 30.30180 79 ft 0 kts 284°
2026-05-01 11:03 59.80148 30.30076 79 ft 30 kts 285°
2026-05-01 11:03 59.80293 30.29099 76 ft 112 kts 287°
2026-05-01 11:04 59.80574 30.27195 162 ft 168 kts 285°
2026-05-01 11:04 59.80885 30.25047 1091 ft 165 kts 285°
2026-05-01 11:04 59.81211 30.22933 2061 ft 163 kts 285°
2026-05-01 11:04 59.81529 30.20768 2788 ft 174 kts 285°
2026-05-01 11:05 59.81887 30.18299 3327 ft 199 kts 286°
2026-05-01 11:05 59.82297 30.15515 3895 ft 222 kts 287°
2026-05-01 11:05 59.82737 30.12528 4824 ft 231 kts 288°
2026-05-01 11:05 59.83246 30.09524 5723 ft 242 kts 286°
2026-05-01 11:06 59.83356 30.06095 6511 ft 263 kts 262°
2026-05-01 11:06 59.82547 30.02771 7504 ft 279 kts 232°
2026-05-01 11:06 59.80970 30.00421 8503 ft 293 kts 204°
2026-05-01 11:07 59.76998 30.01511 10320 ft 306 kts 137°
2026-05-01 11:07 59.75706 30.04733 11165 ft 305 kts 112°
2026-05-01 11:07 59.74788 30.08588 12002 ft 312 kts 107°
2026-05-01 11:07 59.73936 30.12518 12854 ft 319 kts 107°
2026-05-01 11:08 59.73033 30.16597 13763 ft 324 kts 107°
2026-05-01 11:08 59.72113 30.20620 14621 ft 330 kts 108°
2026-05-01 11:08 59.70135 30.28956 16340 ft 339 kts 108°
2026-05-01 11:09 59.69116 30.33168 17172 ft 343 kts 107°
2026-05-01 11:09 59.68091 30.37378 17973 ft 347 kts 107°
2026-05-01 11:09 59.67042 30.41664 18767 ft 351 kts 107°
2026-05-01 11:10 59.64893 30.50409 20317 ft 359 kts 107°
2026-05-01 11:10 59.63802 30.54838 21083 ft 363 kts 107°
2026-05-01 11:10 59.62691 30.59327 21797 ft 367 kts 107°
2026-05-01 11:10 59.61559 30.63887 22534 ft 371 kts 107°
2026-05-01 11:11 59.60433 30.68416 23238 ft 375 kts 108°
2026-05-01 11:11 59.59285 30.73031 23912 ft 379 kts 108°
2026-05-01 11:11 59.58117 30.77720 24618 ft 383 kts 108°
2026-05-01 11:11 59.56931 30.82464 25268 ft 387 kts 108°
2026-05-01 11:12 59.55733 30.87231 25964 ft 390 kts 107°
2026-05-01 11:12 59.54526 30.92048 26595 ft 394 kts 108°
2026-05-01 11:12 59.53313 30.96876 27171 ft 398 kts 107°
2026-05-01 11:12 59.52070 31.01788 27752 ft 402 kts 108°
2026-05-01 11:13 59.50825 31.06712 28328 ft 405 kts 107°
2026-05-01 11:13 59.49564 31.11691 28877 ft 409 kts 107°
2026-05-01 11:13 59.48299 31.16668 29422 ft 412 kts 107°
2026-05-01 11:13 59.47019 31.21693 29956 ft 415 kts 107°
2026-05-01 11:14 59.45717 31.26799 30492 ft 417 kts 107°
2026-05-01 11:14 59.44430 31.31832 30969 ft 420 kts 107°
2026-05-01 11:14 59.43117 31.36962 31426 ft 423 kts 107°
2026-05-01 11:14 59.41794 31.42114 31865 ft 426 kts 107°
2026-05-01 11:15 59.40460 31.47299 32283 ft 429 kts 107°
2026-05-01 11:15 59.39121 31.52496 32670 ft 432 kts 107°
2026-05-01 11:15 59.37767 31.57735 33078 ft 435 kts 107°
2026-05-01 11:15 59.36394 31.63022 33500 ft 437 kts 107°
2026-05-01 11:16 59.35011 31.68346 33922 ft 438 kts 108°
2026-05-01 11:16 59.33628 31.73674 34295 ft 441 kts 108°
2026-05-01 11:16 59.32248 31.78974 34600 ft 445 kts 108°
2026-05-01 11:16 59.30833 31.84379 34965 ft 447 kts 108°
2026-05-01 11:17 59.29427 31.89736 35255 ft 448 kts 108°
2026-05-01 11:17 59.28012 31.95128 35519 ft 450 kts 108°
2026-05-01 11:17 59.26565 32.00624 35704 ft 453 kts 108°
2026-05-01 11:17 59.25126 32.06074 35964 ft 454 kts 109°
2026-05-01 11:18 59.23669 32.11574 36118 ft 456 kts 109°
2026-05-01 11:18 59.22212 32.17061 36335 ft 458 kts 109°
2026-05-01 11:18 59.20760 32.22519 36628 ft 459 kts 109°
2026-05-01 11:18 59.19296 32.28003 36871 ft 461 kts 109°
2026-05-01 11:19 59.17797 32.33608 37131 ft 464 kts 110°
2026-05-01 11:19 59.16313 32.39142 37356 ft 466 kts 110°
2026-05-01 11:19 59.14826 32.44675 37634 ft 468 kts 110°
2026-05-01 11:19 59.13315 32.50281 38058 ft 470 kts 110°
2026-05-01 11:20 59.11802 32.55879 38354 ft 469 kts 110°
2026-05-01 11:20 59.10290 32.61459 38660 ft 468 kts 111°
2026-05-01 11:20 59.08776 32.67037 38879 ft 469 kts 111°
2026-05-01 11:20 59.07253 32.72645 39131 ft 469 kts 112°
2026-05-01 11:21 59.05733 32.78225 39357 ft 470 kts 112°
2026-05-01 11:21 59.04194 32.83859 39579 ft 470 kts 112°
2026-05-01 11:21 59.02668 32.89429 39796 ft 470 kts 112°
2026-05-01 11:21 59.01136 32.95010 39935 ft 472 kts 112°
2026-05-01 11:22 58.99585 33.00644 40104 ft 473 kts 112°
2026-05-01 11:22 58.98053 33.06190 40290 ft 474 kts 112°
2026-05-01 11:22 58.96478 33.11870 40461 ft 475 kts 112°
2026-05-01 11:22 58.94867 33.17413 40557 ft 477 kts 116°
2026-05-01 11:23 58.93082 33.22825 40743 ft 481 kts 119°
2026-05-01 11:23 58.91130 33.28047 40896 ft 484 kts 123°
2026-05-01 11:23 58.88989 33.33111 41068 ft 487 kts 126°
2026-05-01 11:23 58.86657 33.37974 41098 ft 491 kts 130°
2026-05-01 11:24 58.81720 33.47076 41123 ft 492 kts 131°
2026-05-01 11:25 58.74313 33.60680 41134 ft 492 kts 131°
2026-05-01 11:25 58.66912 33.74268 41140 ft 492 kts 132°
2026-05-01 11:26 58.59476 33.87848 41127 ft 492 kts 132°
2026-05-01 11:27 58.54546 33.96793 41145 ft 493 kts 132°
2026-05-01 11:27 58.49575 34.05768 41116 ft 492 kts 132°
2026-05-01 11:28 58.44651 34.14618 41134 ft 491 kts 132°
2026-05-01 11:28 58.39708 34.23481 41116 ft 490 kts 132°
2026-05-01 11:29 58.32259 34.36770 41137 ft 490 kts 132°
2026-05-01 11:30 58.24828 34.49946 40823 ft 490 kts 132°
2026-05-01 11:30 58.22329 34.54351 40431 ft 487 kts 131°
2026-05-01 11:30 58.19831 34.58643 40012 ft 487 kts 134°
2026-05-01 11:30 58.17249 34.62738 39464 ft 487 kts 134°
2026-05-01 11:31 58.14655 34.66841 38851 ft 489 kts 134°
2026-05-01 11:31 58.12055 34.70969 38273 ft 490 kts 134°
2026-05-01 11:31 58.09462 34.75081 37713 ft 491 kts 134°
2026-05-01 11:31 58.06878 34.79168 37227 ft 491 kts 134°
2026-05-01 11:32 58.04258 34.83293 36795 ft 488 kts 133°
2026-05-01 11:32 58.01681 34.87348 36315 ft 488 kts 133°
2026-05-01 11:32 57.99080 34.91429 35849 ft 486 kts 133°
2026-05-01 11:32 57.96495 34.95482 35348 ft 486 kts 133°
2026-05-01 11:33 57.93936 34.99484 34897 ft 485 kts 133°
2026-05-01 11:33 57.91348 35.03520 34411 ft 483 kts 132°
2026-05-01 11:33 57.88782 35.07503 33953 ft 480 kts 132°
2026-05-01 11:33 57.86206 35.11477 33541 ft 475 kts 132°
2026-05-01 11:34 57.83667 35.15390 33113 ft 471 kts 131°
2026-05-01 11:34 57.81147 35.19279 32741 ft 465 kts 131°
2026-05-01 11:34 57.78695 35.23062 32368 ft 461 kts 131°
2026-05-01 11:34 57.76223 35.26867 31990 ft 456 kts 130°
2026-05-01 11:35 57.73811 35.30591 31608 ft 451 kts 131°
2026-05-01 11:35 57.72407 35.32761 31403 ft 449 kts 130°
2026-05-01 11:35 57.70006 35.36444 31045 ft 444 kts 130°
2026-05-01 11:36 57.67618 35.40105 30680 ft 439 kts 130°
2026-05-01 11:36 57.65282 35.43695 30281 ft 435 kts 129°
2026-05-01 11:36 57.62975 35.47230 29879 ft 432 kts 130°
2026-05-01 11:36 57.60669 35.50750 29543 ft 427 kts 129°
2026-05-01 11:37 57.58392 35.54214 29169 ft 423 kts 130°
2026-05-01 11:37 57.56115 35.57672 28806 ft 418 kts 129°
2026-05-01 11:37 57.53893 35.61044 28524 ft 412 kts 129°
2026-05-01 11:37 57.51706 35.64360 28219 ft 407 kts 129°
2026-05-01 11:38 57.49505 35.67708 27860 ft 404 kts 129°
2026-05-01 11:38 57.47373 35.70961 27468 ft 402 kts 129°
2026-05-01 11:38 57.45202 35.74266 27153 ft 397 kts 130°
2026-05-01 11:38 57.43091 35.77459 26865 ft 394 kts 129°
2026-05-01 11:39 57.40983 35.80640 26557 ft 391 kts 130°
2026-05-01 11:39 57.38786 35.83667 26161 ft 393 kts 134°
2026-05-01 11:39 57.36563 35.86565 25729 ft 394 kts 135°
2026-05-01 11:39 57.34324 35.89471 25285 ft 394 kts 134°
2026-05-01 11:40 57.32078 35.92398 24811 ft 394 kts 134°
2026-05-01 11:40 57.29874 35.95288 24371 ft 394 kts 134°
2026-05-01 11:40 57.27656 35.98207 23901 ft 394 kts 134°
2026-05-01 11:40 57.25418 36.01160 23418 ft 394 kts 135°
2026-05-01 11:41 57.23208 36.04073 22947 ft 394 kts 135°
2026-05-01 11:41 57.20978 36.07010 22462 ft 393 kts 135°
2026-05-01 11:41 57.18782 36.09903 22003 ft 392 kts 136°
2026-05-01 11:41 57.16538 36.12854 21515 ft 391 kts 136°
2026-05-01 11:42 57.14339 36.15736 21096 ft 389 kts 136°
2026-05-01 11:42 57.12157 36.18590 20753 ft 384 kts 137°
2026-05-01 11:42 57.10021 36.21383 20432 ft 378 kts 137°
2026-05-01 11:42 57.07884 36.24168 20106 ft 373 kts 137°
2026-05-01 11:43 57.05780 36.26913 19796 ft 369 kts 137°
2026-05-01 11:43 57.03704 36.29620 19483 ft 364 kts 137°
2026-05-01 11:43 57.01641 36.32301 19205 ft 359 kts 137°
2026-05-01 11:44 56.97623 36.37518 18587 ft 351 kts 138°
2026-05-01 11:44 56.95623 36.40110 18257 ft 349 kts 138°
2026-05-01 11:44 56.93647 36.42670 17960 ft 345 kts 138°
2026-05-01 11:44 56.91711 36.45174 17679 ft 342 kts 138°
2026-05-01 11:45 56.89781 36.47665 17392 ft 338 kts 138°
2026-05-01 11:45 56.87907 36.50064 17105 ft 335 kts 139°
2026-05-01 11:45 56.86014 36.52482 16822 ft 332 kts 138°
2026-05-01 11:45 56.84117 36.54904 16524 ft 329 kts 138°
2026-05-01 11:46 56.82235 36.57311 16231 ft 327 kts 138°
2026-05-01 11:46 56.80395 36.59670 15956 ft 324 kts 139°
2026-05-01 11:46 56.78561 36.62023 15657 ft 322 kts 139°
2026-05-01 11:46 56.76740 36.64353 15367 ft 321 kts 139°
2026-05-01 11:47 56.74913 36.66692 15072 ft 319 kts 140°
2026-05-01 11:47 56.73128 36.68980 14807 ft 317 kts 140°
2026-05-01 11:47 56.71338 36.71273 14544 ft 314 kts 139°
2026-05-01 11:47 56.69551 36.73558 14266 ft 312 kts 140°
2026-05-01 11:48 56.68320 36.75129 14075 ft 311 kts 140°
2026-05-01 11:48 56.66544 36.77392 13814 ft 309 kts 140°
2026-05-01 11:48 56.64766 36.79651 13528 ft 308 kts 140°
2026-05-01 11:48 56.63118 36.81743 13272 ft 306 kts 141°
2026-05-01 11:49 56.61517 36.83773 13016 ft 305 kts 141°
2026-05-01 11:49 56.59745 36.86017 12747 ft 302 kts 141°
2026-05-01 11:49 56.58013 36.88207 12475 ft 301 kts 141°
2026-05-01 11:49 56.56296 36.90377 12207 ft 299 kts 141°
2026-05-01 11:50 56.54567 36.92557 11940 ft 297 kts 142°
2026-05-01 11:50 56.52883 36.94677 11680 ft 295 kts 142°
2026-05-01 11:50 56.51189 36.96811 11410 ft 292 kts 142°
2026-05-01 11:50 56.49530 36.98891 11125 ft 279 kts 142°
2026-05-01 11:51 56.47954 37.00869 10888 ft 271 kts 143°
2026-05-01 11:51 56.46429 37.02784 10709 ft 266 kts 143°
2026-05-01 11:51 56.44903 37.04699 10473 ft 264 kts 143°
2026-05-01 11:51 56.43369 37.06622 10208 ft 262 kts 143°
2026-05-01 11:52 56.41869 37.08501 10138 ft 260 kts 144°
2026-05-01 11:52 56.40381 37.10356 10099 ft 261 kts 143°
2026-05-01 11:52 56.38902 37.12199 9950 ft 258 kts 143°
2026-05-01 11:52 56.37407 37.14068 9652 ft 257 kts 144°
2026-05-01 11:53 56.35981 37.15844 9368 ft 257 kts 144°
2026-05-01 11:53 56.34497 37.17693 9014 ft 259 kts 144°
2026-05-01 11:53 56.33028 37.19521 8778 ft 256 kts 144°
2026-05-01 11:53 56.31580 37.21322 8519 ft 254 kts 144°
2026-05-01 11:54 56.30156 37.23090 8222 ft 254 kts 144°
2026-05-01 11:54 56.28665 37.24938 7934 ft 254 kts 145°
2026-05-01 11:54 56.27214 37.26732 7688 ft 253 kts 145°
2026-05-01 11:54 56.25796 37.28400 7445 ft 253 kts 150°
2026-05-01 11:55 56.24194 37.29722 7221 ft 252 kts 161°
2026-05-01 11:55 56.22516 37.30630 7141 ft 252 kts 165°
2026-05-01 11:55 56.20710 37.31503 7109 ft 254 kts 166°
2026-05-01 11:55 56.18992 37.32331 7090 ft 253 kts 164°
2026-05-01 11:56 56.17421 37.33712 6988 ft 251 kts 134°
2026-05-01 11:56 56.16571 37.36416 6727 ft 247 kts 97°
2026-05-01 11:56 56.16674 37.39485 6529 ft 239 kts 72°
2026-05-01 11:56 56.17136 37.42291 6246 ft 240 kts 71°
2026-05-01 11:57 56.17626 37.45153 6004 ft 238 kts 71°
2026-05-01 11:57 56.18087 37.47954 5789 ft 237 kts 71°
2026-05-01 11:57 56.18538 37.50828 5562 ft 236 kts 72°
2026-05-01 11:57 56.18968 37.53657 5352 ft 235 kts 73°
2026-05-01 11:58 56.19386 37.56506 5125 ft 235 kts 77°
2026-05-01 11:58 56.19233 37.59379 4814 ft 240 kts 113°
2026-05-01 11:58 56.17023 37.63792 4689 ft 241 kts 135°
2026-05-01 11:59 56.15854 37.65879 4579 ft 239 kts 135°
2026-05-01 11:59 56.14638 37.68097 4446 ft 239 kts 134°
2026-05-01 11:59 56.13493 37.70197 4276 ft 239 kts 134°
2026-05-01 12:00 56.11185 37.74426 4042 ft 227 kts 134°
2026-05-01 12:00 56.10096 37.76416 4004 ft 217 kts 137°
2026-05-01 12:00 56.07448 37.77282 3783 ft 200 kts 202°
2026-05-01 12:01 56.06162 37.76390 3591 ft 198 kts 204°
2026-05-01 12:01 56.04855 37.75487 3402 ft 197 kts 203°
2026-05-01 12:01 56.03566 37.74662 3227 ft 195 kts 201°
2026-05-01 12:01 56.02315 37.73765 3078 ft 189 kts 219°
2026-05-01 12:02 56.01587 37.71970 3089 ft 179 kts 250°
2026-05-01 12:02 56.01260 37.69811 3080 ft 176 kts 261°
2026-05-01 12:02 56.01040 37.67775 3059 ft 160 kts 261°
2026-05-01 12:02 56.00794 37.65773 3071 ft 168 kts 259°
2026-05-01 12:03 56.00509 37.63732 2850 ft 168 kts 257°
2026-05-01 12:03 56.00214 37.61789 2623 ft 158 kts 257°
2026-05-01 12:03 55.99932 37.59953 2408 ft 146 kts 256°
2026-05-01 12:03 55.99665 37.58223 2215 ft 144 kts 256°
2026-05-01 12:04 55.99404 37.56501 2032 ft 145 kts 256°
2026-05-01 12:04 55.99148 37.54821 1852 ft 146 kts 256°
2026-05-01 12:04 55.98879 37.53052 1657 ft 144 kts 257°
2026-05-01 12:04 55.98619 37.51308 1466 ft 145 kts 256°
2026-05-01 12:05 55.98355 37.49571 1282 ft 145 kts 255°
2026-05-01 12:05 55.97829 37.46100 899 ft 144 kts 257°
2026-05-01 12:05 55.97566 37.44345 696 ft 145 kts 255°
2026-05-01 12:06 55.97322 37.42698 643 ft 118 kts 255°
2026-05-01 12:06 55.97160 37.41607 643 ft 63 kts 255°
2026-05-01 12:06 55.97060 37.40906 643 ft 56 kts 256°
2026-05-01 12:06 55.96969 37.40299 643 ft 33 kts 255°
2026-05-01 12:07 55.96953 37.40095 643 ft 10 kts 299°
2026-05-01 12:07 55.97022 37.40033 643 ft 7 kts 345°
2026-05-01 12:07 55.97079 37.40004 643 ft 9 kts 345°
2026-05-01 12:07 55.97155 37.39967 643 ft 12 kts 345°
2026-05-01 12:08 55.97240 37.39926 643 ft 12 kts 345°
2026-05-01 12:08 55.97332 37.39883 643 ft 14 kts 346°
2026-05-01 12:08 55.97413 37.39829 643 ft 10 kts 312°
2026-05-01 12:08 55.97411 37.39696 643 ft 12 kts 256°
2026-05-01 12:09 55.97387 37.39534 643 ft 13 kts 256°
2026-05-01 12:09 55.97389 37.39432 643 ft 7 kts 314°
2026-05-01 12:09 55.97417 37.39416 643 ft 3 kts 353°
2026-05-01 12:09 55.97439 37.39406 643 ft 0 kts 345°